Emporia, KS

12:31 PM CDT on September 29, 2016 (GMT -0500)
Emporia Municipal

Weather History for KEMP - June, 2013

Change the Weather History Date:

Monday, June 10, 2013

  Actual Average Record
Temperature  
Mean Temperature 72 °F 72 °F  
Max Temperature 89 °F 83 °F 94 °F (2015)
Min Temperature 55 °F 62 °F 55 °F (1997)
Degree Days  
Heating Degree Days 0 0  
Month to date heating degree days 12 5  
Since 1 June heating degree days 12 5  
Since 1 July heating degree days 4994 4816  
Cooling Degree Days 7 7  
Month to date cooling degree days 25 65  
Year to date cooling degree days 141 184  
Since 1 June cooling degree days 25 65  
Growing Degree Days 22 (Base 50)    
Moisture  
Dew Point 63 °F    
Average Humidity 72    
Maximum Humidity 93    
Minimum Humidity 51    
Precipitation  
Precipitation 0.00 in 0.20 in 1.64 in (2003)
Month to date precipitation 0.77 2.08  
Year to date precipitation 13.34 14.76  
Sea Level Pressure  
Sea Level Pressure 29.85 in    
Wind  
Wind Speed 7 mph (SSE)    
Max Wind Speed 26 mph    
Max Gust Speed 28 mph    
Visibility 10 miles    
Events      
T = Trace of Precipitation, MM = Missing Value Source: NWS Daily Summary

Daily Weather History Graph

Daily Weather History Graph

Search for Another Location

Airport or City:

Trip Planner

Search our weather history database for the weather conditions in past years. The results will help you decide how hot, cold, wet, or windy it might be!

Date:

Astronomy

Jun. 10, 2013 Rise Set
Actual Time 6:00 AM CDT 8:48 PM CDT
Civil Twilight 5:29 AM CDT 9:19 PM CDT
Nautical Twilight 4:49 AM CDT 9:59 PM CDT
Astronomical Twilight 4:04 AM CDT 10:44 PM CDT
Moon 7:49 AM CDT (6/10) 10:17 PM CDT (6/10)
Length of Visible Light 15h 50m
Length of Day
14h 47m
Waxing Crescent, 4% of the Moon is Illuminated
Jun 10
Waxing Crescent
Jun 16
First Quarter
Jun 23
Full
Jun 29
Last Quarter
Jul 8
New

Hourly Weather History & Observations

Time (CDT) Temp. Heat Index Dew Point Humidity Pressure Visibility Wind Dir Wind Speed Gust Speed Precip Events Conditions
12:53 AM 64.0 °F - 55.0 °F 73% 29.86 in 10.0 mi West 3.5 mph - N/A   Clear
1:53 AM 61.0 °F - 55.0 °F 81% 29.87 in 10.0 mi NNW 3.5 mph - N/A   Clear
2:53 AM 59.0 °F - 55.0 °F 87% 29.86 in 10.0 mi North 4.6 mph - N/A   Clear
3:53 AM 57.9 °F - 53.1 °F 84% 29.87 in 10.0 mi West 4.6 mph - N/A   Clear
4:53 AM 57.9 °F - 53.1 °F 84% 29.87 in 10.0 mi West 3.5 mph - N/A   Clear
5:53 AM 57.0 °F - 53.1 °F 87% 29.88 in 10.0 mi Calm Calm - N/A   Clear
6:53 AM 57.9 °F - 55.0 °F 90% 29.89 in 10.0 mi Calm Calm - N/A   Clear
7:53 AM 63.0 °F - 57.9 °F 84% 29.89 in 10.0 mi Calm Calm - N/A   Clear
8:53 AM 69.1 °F - 61.0 °F 75% 29.89 in 10.0 mi East 4.6 mph - N/A   Clear
9:53 AM 72.0 °F - 62.1 °F 71% 29.90 in 10.0 mi SSE 3.5 mph - N/A   Clear
10:53 AM 75.9 °F - 62.1 °F 62% 29.88 in 10.0 mi SE 5.8 mph - N/A   Clear
11:53 AM 80.1 °F 81.5 °F 63.0 °F 56% 29.87 in 10.0 mi SSE 8.1 mph - N/A   Clear
12:53 PM 82.0 °F 83.8 °F 64.9 °F 56% 29.86 in 10.0 mi South 9.2 mph - N/A   Clear
1:53 PM 84.0 °F 85.8 °F 64.9 °F 53% 29.86 in 10.0 mi SE 5.8 mph - N/A   Clear
2:53 PM 86.0 °F 88.8 °F 66.9 °F 53% 29.84 in 10.0 mi ESE 4.6 mph - N/A   Clear
3:53 PM 88.0 °F 92.9 °F 70.0 °F 55% 29.83 in 10.0 mi South 9.2 mph - N/A   Clear
4:53 PM 88.0 °F 93.8 °F 71.1 °F 57% 29.81 in 10.0 mi South 10.4 mph - N/A   Clear
5:53 PM 88.0 °F 93.8 °F 71.1 °F 57% 29.81 in 10.0 mi SSE 11.5 mph - N/A   Clear
6:53 PM 87.1 °F 92.8 °F 71.1 °F 59% 29.80 in 10.0 mi SSE 10.4 mph - N/A   Clear
7:53 PM 84.0 °F 89.0 °F 71.1 °F 65% 29.79 in 10.0 mi SSE 11.5 mph - N/A   Clear
8:53 PM 81.0 °F 85.2 °F 72.0 °F 74% 29.78 in 10.0 mi SE 9.2 mph - N/A   Clear
9:53 PM 80.1 °F 83.8 °F 72.0 °F 76% 29.79 in 10.0 mi SSE 10.4 mph - N/A   Clear
10:53 PM 79.0 °F - 71.1 °F 77% 29.80 in 10.0 mi South 11.5 mph 20.7 mph N/A   Clear
11:53 PM 78.1 °F - 70.0 °F 76% 29.79 in 10.0 mi South 12.7 mph - N/A   Clear